• In Spain
  • List of Countries
  • For 7 days
  • Water Temperature
  • Satellite Maps
  • Weather Map
  • Weather Widgets
  • user-avatar
    Login

    Hourly Weather Mishkovo

    Today, 23 October, Tuesday

    Time Temperature Precipitation Wind Pressure Humidity
    00:00 +5°C° 0.6 mm 4 mps 735 mmHg 89%
    01:00 +5°C° 0.6 mm 3 mps 735 mmHg 90%
    02:00 +5°C° 0.6 mm 3 mps 734 mmHg 90%
    03:00 +5°C° 0.1 mm 3 mps 734 mmHg 90%
    04:00 +4°C° 0.1 mm 3 mps 734 mmHg 89%
    05:00 +4°C° 0.1 mm 3 mps 734 mmHg 89%
    06:00 +3°C° 0 mm 3 mps 733 mmHg 90%
    07:00 +3°C° 0 mm 3 mps 733 mmHg 91%
    08:00 +3°C° 0 mm 2 mps 733 mmHg 91%
    09:00 +4°C° 0 mm 2 mps 733 mmHg 87%
    10:00 +5°C° 0 mm 2 mps 732 mmHg 83%
    11:00 +5°C° 0 mm 2 mps 732 mmHg 78%
    12:00 +6°C° 0 mm 2 mps 731 mmHg 75%
    13:00 +6°C° 0 mm 2 mps 730 mmHg 71%
    14:00 +5°C° 0 mm 3 mps 729 mmHg 68%
    15:00 +5°C° 0 mm 3 mps 729 mmHg 72%
    16:00 +4°C° 0 mm 3 mps 728 mmHg 75%
    17:00 +3°C° 0 mm 3 mps 727 mmHg 79%
    18:00 +3°C° 0 mm 3 mps 726 mmHg 80%
    19:00 +3°C° 0 mm 3 mps 725 mmHg 80%
    20:00 +3°C° 0 mm 3 mps 724 mmHg 81%
    21:00 +3°C° 0.1 mm 3 mps 723 mmHg 80%
    22:00 +3°C° 0.1 mm 4 mps 722 mmHg 79%
    23:00 +3°C° 0.1 mm 4 mps 721 mmHg 79%

    Tomorrow, 24 October, Wednesday

    Time Temperature Precipitation Wind Pressure Humidity
    00:00 +3°C° 0.1 mm 4 mps 720 mmHg 79%
    01:00 +3°C° 0.1 mm 4 mps 719 mmHg 79%
    02:00 +2°C° 0.1 mm 5 mps 718 mmHg 79%
    03:00 +2°C° 0.5 mm 5 mps 717 mmHg 81%
    04:00 +2°C° 0.5 mm 5 mps 717 mmHg 82%
    05:00 +3°C° 0.5 mm 4 mps 716 mmHg 83%
    06:00 +3°C° 0.5 mm 4 mps 716 mmHg 84%
    07:00 +3°C° 0.5 mm 4 mps 715 mmHg 85%
    08:00 +3°C° 0.5 mm 4 mps 715 mmHg 86%
    09:00 +3°C° 0.3 mm 4 mps 715 mmHg 86%
    10:00 +3°C° 0.3 mm 3 mps 715 mmHg 86%
    11:00 +4°C° 0.3 mm 3 mps 715 mmHg 86%
    12:00 +4°C° 0.2 mm 3 mps 716 mmHg 86%
    13:00 +4°C° 0.2 mm 3 mps 716 mmHg 85%
    14:00 +5°C° 0.2 mm 2 mps 716 mmHg 85%
    15:00 +5°C° 0.1 mm 2 mps 716 mmHg 87%
    16:00 +4°C° 0.1 mm 2 mps 717 mmHg 88%
    17:00 +4°C° 0.1 mm 2 mps 717 mmHg 90%
    18:00 +4°C° 0.1 mm 2 mps 718 mmHg 91%
    19:00 +3°C° 0.1 mm 3 mps 718 mmHg 91%
    20:00 +2°C° 0.1 mm 3 mps 719 mmHg 91%
    21:00 +3°C° 0.2 mm 3 mps 719 mmHg 91%
    22:00 +3°C° 0.2 mm 3 mps 719 mmHg 90%
    23:00 +3°C° 0.2 mm 3 mps 720 mmHg 89%

    Day after tomorrow, 25 October, Thursday

    Time Temperature Precipitation Wind Pressure Humidity
    00:00 +2°C° 0.3 mm 3 mps 720 mmHg 89%
    01:00 +1°C° 0.3 mm 4 mps 720 mmHg 89%
    02:00 +1°C° 0.3 mm 4 mps 721 mmHg 89%
    03:00 +1°C° 0.2 mm 4 mps 721 mmHg 88%
    04:00 +1°C° 0.2 mm 4 mps 721 mmHg 88%
    05:00 0°C° 0.2 mm 4 mps 721 mmHg 87%
    06:00 0°C° 0 mm 4 mps 721 mmHg 86%
    07:00 0°C° 0 mm 4 mps 721 mmHg 84%
    08:00 0°C° 0 mm 4 mps 721 mmHg 83%
    09:00 0°C° 0 mm 4 mps 721 mmHg 81%
    10:00 0°C° 0 mm 5 mps 721 mmHg 80%
    11:00 +1°C° 0 mm 5 mps 721 mmHg 79%
    12:00 +1°C° 0 mm 5 mps 720 mmHg 78%
    13:00 +1°C° 0 mm 5 mps 720 mmHg 78%
    14:00 +1°C° 0 mm 5 mps 720 mmHg 78%
    15:00 +1°C° 0 mm 5 mps 720 mmHg 77%
    16:00 +1°C° 0 mm 5 mps 720 mmHg 77%
    17:00 +1°C° 0 mm 5 mps 720 mmHg 76%
    18:00 0°C° 0 mm 5 mps 720 mmHg 78%
    19:00 0°C° 0 mm 5 mps 721 mmHg 80%
    20:00 0°C° 0 mm 5 mps 721 mmHg 82%
    21:00 0°C° 0 mm 5 mps 721 mmHg 83%
    22:00 -1°C° 0 mm 5 mps 721 mmHg 85%
    23:00 -1°C° 0 mm 4 mps 722 mmHg 87%

    26 October, Friday

    Time Temperature Precipitation Wind Pressure Humidity
    00:00 -1°C° 0 mm 4 mps 722 mmHg 87%
    01:00 -1°C° 0 mm 4 mps 723 mmHg 87%
    02:00 -1°C° 0 mm 4 mps 723 mmHg 87%
    03:00 -1°C° 0 mm 4 mps 724 mmHg 88%
    04:00 -1°C° 0 mm 4 mps 724 mmHg 89%
    05:00 0°C° 0 mm 3 mps 724 mmHg 90%
    06:00 0°C° 0 mm 3 mps 725 mmHg 89%
    07:00 0°C° 0 mm 3 mps 725 mmHg 89%
    08:00 0°C° 0 mm 3 mps 726 mmHg 89%
    09:00 0°C° 0 mm 4 mps 726 mmHg 87%
    10:00 0°C° 0 mm 4 mps 726 mmHg 86%
    11:00 0°C° 0 mm 4 mps 727 mmHg 85%
    12:00 +1°C° 0 mm 4 mps 727 mmHg 83%
    13:00 +1°C° 0 mm 4 mps 727 mmHg 82%
    14:00 +1°C° 0 mm 4 mps 727 mmHg 81%
    15:00 +1°C° 0.1 mm 4 mps 728 mmHg 82%
    16:00 +1°C° 0.1 mm 4 mps 728 mmHg 82%
    17:00 +2°C° 0.1 mm 3 mps 729 mmHg 82%
    18:00 +1°C° 0.1 mm 3 mps 729 mmHg 84%
    19:00 +1°C° 0.1 mm 3 mps 729 mmHg 86%
    20:00 0°C° 0.1 mm 3 mps 730 mmHg 87%
    21:00 0°C° 0 mm 3 mps 730 mmHg 89%
    22:00 0°C° 0 mm 3 mps 731 mmHg 91%
    23:00 -1°C° 0 mm 3 mps 731 mmHg 92%

    27 October, Saturday

    Time Temperature Precipitation Wind Pressure Humidity
    00:00 -1°C° 0 mm 3 mps 732 mmHg 93%
    01:00 -1°C° 0 mm 3 mps 732 mmHg 94%
    02:00 -2°C° 0 mm 2 mps 732 mmHg 95%
    03:00 -2°C° 0 mm 2 mps 733 mmHg 96%
    04:00 -2°C° 0 mm 2 mps 733 mmHg 96%
    05:00 -2°C° 0 mm 2 mps 733 mmHg 97%
    06:00 -2°C° 0 mm 2 mps 733 mmHg 96%
    07:00 -1°C° 0 mm 2 mps 733 mmHg 95%
    08:00 -1°C° 0 mm 2 mps 734 mmHg 93%
    09:00 0°C° 0 mm 3 mps 733 mmHg 89%
    10:00 +2°C° 0 mm 3 mps 733 mmHg 85%
    11:00 +3°C° 0 mm 4 mps 733 mmHg 80%
    12:00 +3°C° 0.3 mm 4 mps 732 mmHg 81%
    13:00 +2°C° 0.3 mm 5 mps 732 mmHg 81%
    14:00 +3°C° 0.3 mm 5 mps 731 mmHg 81%
    15:00 +3°C° 0.5 mm 5 mps 731 mmHg 83%
    16:00 +3°C° 0.5 mm 5 mps 730 mmHg 85%
    17:00 +3°C° 0.5 mm 5 mps 730 mmHg 87%
    18:00 +3°C° 0.2 mm 5 mps 730 mmHg 88%
    19:00 +5°C° 0.2 mm 5 mps 730 mmHg 88%
    20:00 +5°C° 0.2 mm 5 mps 730 mmHg 89%
    21:00 +5°C° 0.1 mm 4 mps 730 mmHg 89%
    22:00 +5°C° 0.1 mm 4 mps 730 mmHg 90%
    23:00 +5°C° 0.1 mm 4 mps 730 mmHg 91%

    28 October, Sunday

    Time Temperature Precipitation Wind Pressure Humidity
    00:00 +5°C° 0.1 mm 3 mps 731 mmHg 92%
    01:00 +5°C° 0.1 mm 3 mps 731 mmHg 94%
    02:00 +5°C° 0.1 mm 2 mps 731 mmHg 95%
    03:00 +5°C° 0.1 mm 2 mps 731 mmHg 95%
    04:00 +5°C° 0.1 mm 2 mps 731 mmHg 96%
    05:00 +5°C° 0.1 mm 2 mps 731 mmHg 96%
    06:00 +6°C° 0.1 mm 1 mps 731 mmHg 96%
    07:00 +6°C° 0.1 mm 1 mps 731 mmHg 96%
    08:00 +6°C° 0.1 mm 1 mps 731 mmHg 97%
    09:00 +6°C° 0.2 mm 1 mps 731 mmHg 95%
    10:00 +7°C° 0.2 mm 1 mps 731 mmHg 94%
    11:00 +7°C° 0.2 mm 1 mps 731 mmHg 93%
    12:00 +7°C° 0.7 mm 1 mps 731 mmHg 94%
    13:00 +7°C° 0.7 mm 1 mps 731 mmHg 95%
    14:00 +7°C° 0.7 mm 1 mps 730 mmHg 96%
    15:00 +6°C° 1.5 mm 1 mps 730 mmHg 96%
    16:00 +5°C° 1.5 mm 2 mps 729 mmHg 96%
    17:00 +5°C° 1.5 mm 2 mps 729 mmHg 96%
    18:00 +5°C° 0.3 mm 2 mps 728 mmHg 95%
    19:00 +4°C° 0.3 mm 3 mps 728 mmHg 95%
    20:00 +4°C° 0.3 mm 3 mps 727 mmHg 94%
    21:00 +5°C° 0.2 mm 3 mps 727 mmHg 93%
    22:00 +6°C° 0.2 mm 4 mps 727 mmHg 93%
    23:00 +7°C° 0.2 mm 4 mps 727 mmHg 92%

    29 October, Monday

    Time Temperature Precipitation Wind Pressure Humidity
    00:00 +6°C° 0.1 mm 5 mps 728 mmHg 89%
    01:00 +4°C° 0.1 mm 6 mps 729 mmHg 86%
    02:00 +3°C° 0.1 mm 6 mps 729 mmHg 84%
    03:00 +3°C° 0 mm 6 mps 730 mmHg 84%
    04:00 +3°C° 0 mm 5 mps 732 mmHg 84%
    05:00 +2°C° 0 mm 5 mps 733 mmHg 84%
    06:00 +3°C° 0.1 mm 4 mps 734 mmHg 84%
    07:00 +3°C° 0.1 mm 4 mps 735 mmHg 84%
    08:00 +3°C° 0.1 mm 4 mps 736 mmHg 84%
    09:00 +4°C° 0 mm 4 mps 737 mmHg 81%
    10:00 +4°C° 0 mm 4 mps 737 mmHg 78%
    11:00 +4°C° 0 mm 4 mps 738 mmHg 75%
    12:00 +4°C° 0 mm 4 mps 739 mmHg 75%
    13:00 +4°C° 0 mm 4 mps 739 mmHg 76%
    14:00 +4°C° 0 mm 4 mps 740 mmHg 76%
    15:00 +4°C° 0 mm 3 mps 741 mmHg 78%
    16:00 +3°C° 0 mm 3 mps 741 mmHg 80%
    17:00 +3°C° 0 mm 3 mps 742 mmHg 82%
    18:00 +3°C° 0 mm 3 mps 742 mmHg 84%
    19:00 +3°C° 0 mm 2 mps 742 mmHg 86%
    20:00 +3°C° 0 mm 2 mps 743 mmHg 88%
    21:00 +2°C° 0 mm 2 mps 743 mmHg 89%
    22:00 +2°C° 0 mm 2 mps 744 mmHg 90%
    23:00 +2°C° 0 mm 1 mps 744 mmHg 92%
    Show more